Regional Weather Roundup
Issued by NWS Northern Indiana

Home | Current Version | Previous Version | Text Only | Print | Product List | Glossary Off
Versions: 1 2 3 4 5 6 7 8 9 10 11 12 13 14 15 16 17 18 19 20 21 22 23 24 25 26 27 28 29 30 31 32 33 34 35 36 37 38 39 40 41 42 43 44 45 46 47 48 49 50

000
ASUS43 KIWX 301410
RWRIWX

KIWX WEATHER ROUNDUP
NATIONAL WEATHER SERVICE NORTHERN INDIANA
1000 AM EDT MON MAY 30 2016

NOTE: "FAIR" INDICATES FEW OR NO CLOUDS BELOW 12,000 FEET WITH NO
SIGNIFICANT WEATHER AND/OR OBSTRUCTIONS TO VISIBILITY.

* THESE STATIONS ARE NOT UNDER NWS QUALITY CONTROL. THEY ALSO MAY NOT
  REPORT WEATHER SUCH AS PRECIPITATION OR FOG.

INZ001>027-301500-
NORTHERN INDIANA

CITY           SKY/WX    TMP DP  RH WIND       PRES   REMARKS
GARY*          MOSUNNY   77  66  69 W7        30.04S
VALPARAISO     SUNNY     75  60  59 CALM      30.05S
MICHIGAN CITY* SUNNY     73  61  64 N5        30.05R
LAPORTE*       SUNNY     76  59  55 CALM      30.05S
KNOX*          SUNNY     73  46  38 NW3       30.04S
SOUTH BEND     SUNNY     74  60  61 CALM      30.04S
GOSHEN         SUNNY     74  59  59 NW6       30.04S
MONTICELLO*    MOSUNNY   77  51  39 SW6       30.05S
LOGANSPORT*    SUNNY     77  55  47 W5        30.07R
ROCHESTER*     SUNNY     77  61  57 CALM      30.06R
WARSAW*        SUNNY     73  59  60 NW5       30.05S
ANGOLA*          N/A     75  70  83 W6        30.03S
FORT WAYNE     MOSUNNY   77  57  50 W6        30.06R
HUNTINGTON*    MOSUNNY   75  59  58 W6        30.05S
PERU/GRISSOM   CLOUDY    76  59  56 W7        30.05S
MARION*        SUNNY     76  57  51 NW5       30.07S

$$
INZ028>050-301500-
CENTRAL INDIANA

CITY           SKY/WX    TMP DP  RH WIND       PRES   REMARKS
LAFAYETTE      SUNNY     75  61  61 CALM      30.06R
KOKOMO*        CLOUDY    77  57  50 W3        30.06S
MUNCIE*        CLOUDY    78  56  46 VRB5      30.07S
INDIANAPOLIS   CLOUDY    76  61  59 CALM      30.06S

$$
MIZ043>046-050>051-056>058-064>065-071>073-077>080-301500-
SOUTHWEST LOWER MICHIGAN

CITY           SKY/WX    TMP DP  RH WIND       PRES   REMARKS
BATTLE CREEK   SUNNY     72  60  66 CALM      30.04S
BENTON HARBOR  SUNNY     71  59  65 VRB3      30.03S
COLDWATER*     SUNNY     74  59  60 NW3       30.04R
HILLSDALE*     SUNNY     73  54  51 W3        30.04S
HOLLAND        SUNNY     73  60  63 SW6       30.03S
GRAND RAPIDS   MOSUNNY   74  60  61 S3        30.02S
KALAMAZOO      SUNNY     74  58  57 W3        30.03S
STURGIS*       MOSUNNY   73  60  63 NW3       30.04R
THREE RIVERS*  FAIR      74  59  58 CALM      30.04S

$$
OHZ001>008-015>018-024>025-301500-
NORTHWEST OHIO

CITY           SKY/WX    TMP DP  RH WIND       PRES   REMARKS
WAUSEON*         N/A     75  75 100 VRB5      30.03S
DEFIANCE       SUNNY     77  58  51 CALM      30.04S
FINDLAY        SUNNY     77  56  48 W9        30.03S
TOLEDO EXPRESS SUNNY     75  59  57 SW6       30.02S
TOLEDO METCALF SUNNY     76  58  53 NW6       30.03S
LIMA           SUNNY     76  58  53 W6        30.05S

$$
AND FOR LAKE MICHIGAN COASTAL AND OPEN LAKE BUOY OBSERVATIONS

STATION/POSITION TEMP    WIND        PRES    VSBY  WAVE
                 AIR SEA DIR/SP/G                  HT/PER
                 (F)     (DEG/KT/KT) (MB)    (MI)  (FT/S)
CALUMET HARBOR    74     260/  2/  4 1016.3R
MICHIGAN CITY     69     230/  5/  5   N/A
BURNS HARBOR      69     250/  4/  5 1017.6R
SAINT JOSEPH      69     220/  3/  3 1017.3S
SOUTH LAKE BUOY   56 52  250/  4/  4 1016.5R         0
4 MI NW BRIDGMAN  63 62  210/  4/  4   N/A           1
MICHIGAN CITY     65 59  210/  2/  4   N/A           0

$$
&&




USA.gov is the U.S. government's official web portal to all federal, state and local government web resources and services.